Location: Aalen
(48.8330°N, 10.1000°E)
Time: 19:48:36
(UTC+02:00)

S-56A Canister/Altair - Pass Details

Date: 06 August 2021
Orbit: 632 x 2500 km, 38.9° (Epoch: 19 September)

Event Time Altitude Azimuth Distance (km) Brightness Sun altitude
Rises 12:21:54 0° 185° (S) 4,656 12.0 55.2°
Reaches altitude 10° 12:26:07 10° 167° (SSE) 4,014 11.9 55.5°
Maximum altitude 12:32:40 18° 130° (SE) 3,857 11.9 56.0°
Drops below altitude 10° 12:40:21 10° 95° (E) 4,876 11.9 56.4°
Sets 12:46:18 0° 79° (E) 6,086 12.2 56.8°
